SCP
0 0 0 0 0 0 0 0 0 0 0 0 0 0 0 0 0 0 0 0 0 0 0 0 0 0 0 0 0 0 0 0 0 0 0 0 0 0 0 0 0 0 0 0
0 0 0 0 0 0 0 0 0 0 0 0 0 0 0 0 0 0 0 0 0 0 0 0 0 0 0 0 0 0 0 0 0 0 0 0 0 0 0 0 0 0 0 0
0 0 0 0 0 0 0 0 0 0 0 0 0 0 0 0 0 0 0 0 0 0 0 0 0 0 0 0 0 0 0 0 0 0 0 0 0 0 0 0 0 0 0 0
0 0 0 0 0 0 0 0 0 0 0 0 0 0 0 0 0 0 0 0 0 0 0 0 0 0 0 0 0 0 0 0 0 0 0 0 0 0 0 0 0 0 0 0
0 0 0 0 0 0 0 0 0 0 0 0 0 0 0 0 0 0 0 0 0 0 0 0 0 0 0 0 0 0 0 0 0 0 0 0 0 0 0 0 0 0 0 0
0 0 0 0 0 0 0 0 0 0 0 0 0 0 0 0 0 0 0 0 0 0 0 0 0 0 0 0 0 0 0 0 0 0 0 0 0 0 0 0 0 0 0 0
0 0 0 0 0 0 0 0 0 0 0 0 0 0 0 0 0 0 0 0 0 0 0 0 0 0 0 0 0 0 0 0 0 0 0 0 0 0 0 0 0 0 0 0
0 0 0 0 0 0 0 0 0 0 0 0 0 0 0 0 0 0 0 0 0 0 0 0 0 0 0 0 0 0 0 0 0 0 0 0 0 0 0 0 0 0 0 0
0 0 0 0 0 0 0 0 0 0 0 0 0 0 0 0 0 0 0 0 0 0 0 0 0 0 0 0 0 0 0 0 0 0 0 0 0 0 0 0 0 0 0 0
0 0 0 0 0 0 0 0 0 0 0 0 0 0 0 0 0 0 0 0 0 0 0 0 0 0 0 0 0 0 0 0 0 0 0 0 0 0 0 0 0 0 0 0
0 0 0 0 0 0 0 0 0 0 0 0 0 0 0 0 0 0 0 0 0 0 0 0 0 0 0 0 0 0 0 0 0 0 0 0 0 0 0 0 0 0 0 0
0 0 0 0 0 0 0 0 0 0 0 0 0 0 0 0 0 0 0 0 0 0 0 0 0 0 0 0 0 0 0 0 0 0 0 0 0 0 0 0 0 0 0 0
0 0 0 0 0 0 0 0 0 0 0 0 0 0 0 0 0 0 0 0 0 0 0 0 0 0 0 0 0 0 0 0 0 0 0 0 0 0 0 0 0 0 0 0
0 0 0 0 0 0 0 0 0 0 0 0 0 0 0 0 0 0 0 0 0 0 0 0 0 0 0 0 0 0 0 0 0 0 0 0 0 0 0 0 0 0 0 0
0 0 0 0 0 0 0 0 0 0 0 0 0 0 0 0 0 0 0 0 0 0 0 0 0 0 0 0 0 0 0 0 0 0 0 0 0 0 0 0 0 0 0 0
0 0 0 0 0 0 0 0 0 0 0 0 0 0 0 0 0 0 0 0 0 0 0 0 0 0 0 0 0 0 0 0 0 0 0 0 0 0 0 0 0 0 0 0
0 0 0 0 0 0 0 0 0 0 0 0 0 0 0 0 0 0 0 0 0 0 0 0 0 0 0 0 0 0 0 0 0 0 0 0 0 0 0 0 0 0 0 0
0 0 0 0 0 0 0 0 0 0 0 0 0 0 0 0 0 0 0 0 0 0 0 0 0 0 0 0 0 0 0 0 0 0 0 0 0 0 0 0 0 0 0 0
0 0 0 0 0 0 0 0 0 0 0 0 0 0 0 0 0 0 0 0 0 0 0 0 0 0 0 0 0 0 0 0 0 0 0 0 0 0 0 0 0 0 0 0
0 0 0 0 0 0 0 0 0 0 0 0 0 0 0 0 0 0 0 0 0 0 0 0 0 0 0 0 0 0 0 0 0 0 0 0 0 0 0 0 0 0 0 0
0 0 0 0 0 0 0 0 0 0 0 0 0 0 0 0 0 0 0 0 0 0 0 0 0 0 0 0 0 0 0 0 0 0 0 0 0 0 0 0 0 0 0 0
0 0 -0 0 0 0 0 0 0 0 0 0 0 0 0 0 0 0 0 0 0 0 0 0 0 0 0 0 0 0 0 0 0 0 0 0 0 0 0 0 0 0 0 0
0 0 0 0 0 0 0 0 0 0 0 0 0 0 0 0 0 0 0 0 0 0 0 0 0 0 0 0 0 0 0 0 0 0 0 0 0 0 0 0 0 0 0 0
0 0 0 0 0 0 0 0 0 0 0 0 0 0 0 0 0 0 0 0 0 0 0 0 0 0 0 0 0 0 0 0 0 0 0 0 0 0 0 0 0 0 0 0
0 0 0 0 0 0 0 0 0 0 0 0 0 0 0 0 0 0 0 0 0 0 0 0 0 0 0 0 0 0 0 0 0 0 0 0 0 0 0 0 0 0 0 0
0 0 0 0 0 0 0 0 0 0 0 0 0 0 0 0 0 0 0 0 0 0 0 0 0 0 0 0 0 0 0 0 0 0 0 0 0 0 0 0 0 0 0 0
0 0 0 0 0 0 0 0 0 0 0 0 0 0 0 0 0 0 0 0 0 0 0 0 0 0 0 0 0 0 0 0 0 0 0 0 0 0 0 0 0 0 0 0
Wind_Speed
1 1 1 1 1 1 2 4 4 3 3 5 4 4 5 6 7 7 7 7 7 7 6 6 6 5 5 5 4 4 4 5 5 5 5 5 5 6 6 6 6 6 6 7
3 3 2 2 2 1 1 3 2 2 5 6 5 5 5 5 6 6 6 6 6 6 6 6 6 5 5 4 4 4 4 5 5 5 5 5 5 5 6 6 6 7 7 8
3 4 4 2 5 3 3 4 4 4 5 4 4 4 4 5 5 5 6 6 5 5 6 6 6 5 5 5 4 4 4 5 5 5 5 5 5 6 6 6 6 6 7 8
2 4 3 5 4 4 3 5 5 5 5 4 5 4 4 5 5 5 5 6 5 5 5 6 6 5 5 5 4 4 4 5 5 4 5 4 5 6 6 5 5 6 7 7
2 2 3 5 2 2 2 3 5 4 4 5 5 5 5 5 4 5 5 6 6 6 6 6 6 5 5 5 5 4 4 5 4 4 4 4 5 5 5 5 5 5 6 7
3 2 1 5 4 2 3 3 4 3 2 2 2 1 4 5 5 6 6 6 7 6 7 7 6 5 5 5 4 4 4 4 4 4 4 4 5 4 4 4 4 5 6 7
2 1 5 6 4 4 3 5 4 2 2 2 2 4 6 6 6 7 7 7 7 6 6 6 6 5 5 5 5 5 4 4 4 4 4 4 4 3 3 4 5 5 6 6
1 1 4 6 3 4 6 4 3 4 4 5 6 7 8 7 8 8 7 7 7 6 6 6 5 5 5 5 5 5 4 5 5 4 3 4 3 3 3 3 4 4 4 4
4 6 6 5 5 5 3 4 4 4 5 6 7 7 8 8 8 8 7 7 6 7 7 6 5 4 6 6 5 5 5 5 5 4 4 3 3 3 3 2 2 3 3 4
5 6 5 5 5 5 5 5 5 5 6 6 7 7 8 8 8 8 7 7 6 7 7 6 5 5 5 6 5 5 5 5 4 4 4 4 2 2 3 3 3 3 3 3
5 6 5 5 5 6 6 6 6 6 6 6 7 8 8 8 8 7 7 6 6 6 6 7 6 6 5 5 4 5 5 4 4 4 4 3 4 4 4 6 6 4 4 3
4 4 3 5 5 5 5 5 6 6 6 6 7 8 8 8 7 7 7 6 6 6 6 6 6 6 5 5 4 5 5 4 3 3 3 3 4 5 6 5 4 4 5 6
5 5 5 5 5 5 5 6 6 7 7 7 7 7 8 8 7 7 7 7 7 6 6 6 6 6 5 5 5 4 4 3 2 3 3 2 2 3 4 4 2 2 2 3
5 5 6 5 6 5 6 6 6 8 8 8 7 7 8 7 7 7 7 7 6 6 7 7 6 6 6 6 5 4 4 4 2 2 2 2 2 1 2 3 4 4 4 2
4 3 5 6 6 6 6 7 7 8 8 8 8 7 7 7 7 7 7 7 6 6 7 7 6 6 6 5 5 4 3 3 2 2 2 2 1 1 1 2 2 2 4 5
5 6 6 6 6 6 6 6 6 7 8 8 8 7 7 7 7 7 7 7 7 7 6 6 6 6 6 5 5 4 3 3 1 2 2 2 1 1 1 1 1 2 1 2
6 6 5 6 6 6 5 5 5 6 7 7 8 8 8 8 7 7 7 6 6 6 6 6 6 6 6 6 5 4 4 5 5 4 2 1 1 1 1 1 1 1 2 3
4 4 4 4 5 5 5 5 6 6 7 7 8 9 8 8 7 7 7 7 6 6 6 6 6 6 6 6 4 3 3 4 4 3 2 2 1 2 2 2 2 3 2 5
5 5 5 5 5 5 5 5 6 6 7 7 8 8 8 7 7 7 8 8 8 7 7 7 6 6 6 5 4 5 4 4 3 3 2 2 4 3 3 2 3 3 3 2
5 5 5 5 5 5 5 5 5 6 7 7 8 8 8 7 7 7 8 7 6 5 7 7 9 8 7 7 7 6 5 5 5 4 4 4 3 3 3 3 3 3 3 3
6 5 5 5 5 5 5 5 6 6 7 8 8 8 8 8 8 7 7 7 7 6 7 7 7 7 7 6 8 7 6 5 5 5 4 5 4 4 4 4 3 3 4 4
5 5 5 4 4 5 5 5 6 6 7 7 8 8 8 8 8 8 8 5 5 7 8 8 9 6 5 6 8 8 7 7 6 6 5 5 5 5 5 5 5 4 5 5
4 4 4 4 4 5 5 5 6 6 7 7 8 8 8 7 6 7 7 7 6 9 8 7 5 8 8 9 9 8 8 8 8 7 7 7 7 6 6 7 6 6 6 6
4 4 4 3 4 5 5 5 5 5 6 6 7 8 7 6 6 7 5 6 6 8 8 6 9 11 11 9 9 9 8 8 9 9 9 8 8 8 8 7 7 7 7 8
4 4 4 3 4 3 4 5 6 6 7 6 6 8 7 6 6 6 6 7 9 10 9 9 13 13 11 10 10 10 9 9 8 8 8 8 9 9 8 8 8 8 8 8
4 3 3 2 2 2 3 4 4 5 5 5 5 6 6 6 7 6 6 8 10 10 10 8 10 12 12 12 11 11 10 9 10 10 11 10 11 10 9 9 11 10 9 9
5 4 4 4 3 3 3 3 4 4 5 5 5 5 6 6 7 7 8 8 8 10 10 9 9 10 11 11 11 10 10 10 10 10 10 11 11 11 11 12 11 10 10 10
Wind_Direction
56 82 200 281 290 283 288 309 303 346 42 72 81 107 119 125 130 134 137 142 143 143 140 138 133 125 112 105 97 92 90 82 75 66 59 54 49 46 43 40 43 42 43 43
166 149 138 80 31 2 349 343 342 42 71 64 84 98 113 125 132 138 142 144 146 149 147 146 138 131 123 113 104 101 93 86 82 76 69 60 54 50 48 44 42 44 45 46
185 165 194 111 25 20 51 27 349 10 64 82 89 97 115 125 129 135 143 146 146 151 148 143 141 136 128 119 113 109 100 93 88 84 76 63 55 54 52 49 48 46 48 49
190 199 214 79 51 31 43 50 42 61 78 84 85 85 99 116 127 133 142 144 142 138 133 133 132 130 125 118 114 110 104 98 94 86 78 67 61 57 54 52 49 51 51 51
227 203 128 120 65 347 320 65 49 69 89 95 107 110 101 95 105 120 126 130 134 135 132 132 131 131 127 121 116 110 103 98 93 85 77 68 64 59 54 56 54 53 56 54
221 237 107 74 39 344 263 120 68 67 95 118 185 208 104 102 106 110 113 119 127 131 130 131 130 129 124 122 116 108 103 97 90 82 76 69 67 63 61 60 65 65 60 54
224 173 87 45 353 275 280 55 36 37 92 120 34 48 104 118 114 114 115 122 132 134 130 129 133 134 128 123 115 112 108 101 92 86 84 80 75 75 74 70 65 65 67 64
240 199 85 30 9 20 40 49 55 74 94 96 90 102 117 122 123 126 125 129 132 130 124 127 137 139 128 119 116 117 115 107 97 89 84 85 77 73 74 79 93 85 77 71
30 58 70 52 54 63 70 76 76 88 101 115 120 123 125 129 130 131 130 131 133 131 124 126 138 138 128 126 129 129 122 105 95 89 82 85 92 92 90 71 67 79 81 78
106 99 90 82 85 81 78 81 89 102 115 121 125 126 129 132 132 133 134 135 138 133 130 130 130 124 122 128 135 130 119 110 105 102 100 91 82 89 80 66 61 59 60 70
115 117 116 95 81 84 86 94 101 107 111 117 125 129 131 132 133 135 134 136 139 138 137 134 136 135 132 135 139 128 119 115 114 108 97 96 78 47 37 50 31 13 33 45
95 112 106 102 97 99 103 106 112 116 115 119 126 130 133 131 131 134 135 138 142 141 136 137 143 137 136 140 141 137 132 131 125 123 121 126 120 111 64 52 65 49 26 9
82 93 95 108 109 108 109 111 118 122 122 123 123 129 132 131 136 137 140 142 141 139 137 140 141 138 141 145 144 141 138 136 141 135 132 131 126 125 128 126 127 98 58 33
108 116 121 117 110 116 117 119 122 123 122 122 126 130 132 133 136 141 142 140 139 140 142 146 146 139 141 146 149 148 151 147 165 143 132 119 118 121 123 132 145 146 152 156
125 118 113 116 120 124 130 132 133 135 133 132 135 137 140 142 143 142 141 143 146 149 152 154 150 144 148 152 159 162 163 152 159 142 148 137 146 145 121 123 123 129 143 154
129 125 129 132 133 138 143 144 143 142 143 144 145 146 148 146 144 145 150 158 162 162 160 161 157 155 159 163 169 171 151 106 243 206 169 158 169 171 156 162 151 152 162 152
143 140 142 141 145 149 147 148 145 145 149 152 151 151 152 151 150 153 160 165 167 166 169 170 167 167 169 174 193 194 170 156 195 229 207 170 181 194 196 209 198 187 164 93
138 137 143 150 150 150 151 153 153 152 152 155 156 159 162 164 167 165 167 167 171 176 180 180 176 182 183 186 202 212 186 187 196 201 187 190 220 224 223 217 212 218 194 159
135 135 141 149 155 156 154 155 156 157 158 162 165 167 171 172 171 170 173 179 184 187 188 181 171 198 197 196 218 214 207 201 203 208 210 187 227 234 232 233 223 218 220 215
143 144 147 152 158 162 161 160 162 163 167 171 173 174 177 177 177 179 184 195 199 190 176 175 186 200 202 197 228 228 215 217 220 219 222 230 230 229 235 238 237 234 234 234
150 151 156 155 156 165 165 165 169 172 174 179 184 185 183 182 186 189 195 199 190 191 184 174 203 206 204 193 210 233 222 222 228 230 232 238 244 241 242 246 244 241 241 241
151 153 157 153 162 163 165 171 173 175 176 184 191 190 188 189 193 198 207 218 188 174 197 197 206 201 193 205 219 226 226 225 231 235 239 245 247 245 246 247 249 247 245 247
154 155 162 165 168 166 169 176 177 179 183 188 192 196 200 204 203 206 203 198 195 183 210 214 179 157 179 220 233 230 229 230 234 237 239 241 243 244 248 251 252 254 253 252
155 156 161 167 169 173 179 183 180 186 192 198 197 199 205 208 209 217 219 179 189 183 215 188 162 176 201 230 235 235 232 230 234 236 238 240 243 244 246 249 252 253 253 253
162 163 162 176 186 186 184 190 191 195 201 202 202 201 210 219 224 216 212 199 183 194 219 194 185 195 216 233 235 236 236 234 238 244 241 242 246 248 248 250 251 253 253 253
174 184 168 196 214 220 205 199 202 200 207 207 205 202 207 212 222 219 214 216 207 208 228 220 200 200 221 232 235 237 240 234 227 234 243 246 246 248 250 251 253 252 254 254
193 193 199 210 206 216 225 221 223 220 221 221 217 211 211 212 215 218 220 221 215 212 222 228 225 217 222 228 232 234 236 238 239 239 240 241 244 246 247 248 250 251 251 251